Flag Weather past 2 weeks in Denver, Colorado, U.S.A.

Now
45 °F

Passing clouds.


Feels Like: 39 °F
Forecast: 41 / 67 °F
Wind: 13 mph from South

Location: Buckley Air Force Base

Current Time: Nov 28, 2014 at 6:43:14 AM

Latest Report: Nov 28, 2014 at 5:58 AM


Visibility: 10 mi

Pressure: 29.90 "Hg

Humidity: 28%

Dew point: 14 °F

Location of DenverLocation

Historic Weather in Denver — Graph

°F

Denver temperature yesterday

Maximum temperature yesterday: 65 °F (at 11:58 AM)
Minimum temperature yesterday: 27 °F (at 12:58 AM)
Average temperature yesterday: 49 °F

Past Weeks' High & Low Weather Summary

 TemperatureHumidityPressure
High65 °F (Nov 27, 11:58 AM)99% (Nov 26, 2:58 AM)30.65 "Hg (Nov 26, 2:58 AM)
Low-7 °F (Nov 13, 5:58 AM)13% (Nov 27, 11:58 AM)29.44 "Hg (Nov 22, 11:58 PM)
Average30 °F54%30.06 "Hg
* Reported Nov 13 5:58 AM — Nov 28 5:58 AM, Denver, Weather by CustomWeather, © 2014

Note: Actual official high and low records may vary slightly from our data, if they occured in-between our weather recording intervals... More about our weather records

Advertising

Denver weather history for previous 24 hours

 ConditionsComfort  
Time TempWeatherWind HumidityBarometerVisibility
5:58 AM
Nov 28
45 °FPassing clouds.13 mph28%29.90 "Hg10 mi
4:58 AM48 °FPassing clouds.12 mph24%29.88 "Hg10 mi
3:58 AM52 °FPassing clouds.9 mph20%29.88 "Hg10 mi
2:58 AM48 °FPassing clouds.9 mph25%29.89 "Hg10 mi
1:58 AM49 °FPassing clouds.7 mph24%29.90 "Hg10 mi
12:58 AM48 °FPassing clouds.7 mph28%29.92 "Hg10 mi
11:58 PM
Nov 27
44 °FPassing clouds.10 mph36%29.96 "Hg10 mi
10:58 PM47 °FPassing clouds.7 mph29%29.96 "Hg10 mi
9:58 PM54 °FPassing clouds.5 mph21%29.98 "Hg10 mi
8:58 PM54 °FPassing clouds.1 mph22%30.01 "Hg10 mi
7:58 PM49 °FPassing clouds.6 mph29%30.04 "Hg10 mi
6:58 PM49 °FPassing clouds.12 mph33%30.06 "Hg10 mi
5:58 PM52 °FPassing clouds.3 mph26%30.08 "Hg10 mi
4:58 PM53 °FPassing clouds.1 mph26%30.08 "Hg10 mi
3:58 PM57 °FBroken clouds.3 mph23%30.04 "Hg10 mi
2:58 PM61 °FPartly sunny.5 mph21%30.05 "Hg10 mi
1:58 PM62 °FBroken clouds.8 mph17%30.06 "Hg10 mi
12:58 PM64 °FBroken clouds.6 mph13%30.10 "Hg10 mi
11:58 AM65 °FBroken clouds.8 mph13%30.12 "Hg10 mi
10:58 AM62 °FBroken clouds.16 mph15%30.15 "Hg10 mi
9:58 AM52 °FBroken clouds.8 mph26%30.22 "Hg10 mi
8:58 AM47 °FBroken clouds.10 mph29%30.21 "Hg10 mi
7:58 AM46 °FPartly sunny.8 mph30%30.24 "Hg10 mi
6:58 AM44 °FPartly sunny.14 mph34%30.21 "Hg10 mi
Weather by CustomWeather, © 2014

See weather overviewHow to use our weather pages